sat.trackr.live / text

‹ back to catalog

STARLINK-30217

NORAD 57450 · 2023-105W

PAYLOAD ACTIVE UNKNOWN

§ Identity

Operator
Country
US
Launch date
2023-07-24
Launch site
AFETR
Launch vehicle
Mass (kg)
RCS (m²)

Purposes: comms

External: N2YO · Heavens-Above · Gunter

§ Orbital elements

Epoch: 2026-05-25T03:21:03.227616Z

Period
94.26 min
Inclination
43.0041°
Eccentricity
0.0001850
Mean motion
15.27719753 rev/d
Perigee alt
481.4 km
Apogee alt
483.9 km
Semi-major
6,860.8 km
B*
-1.3768e-3
RAAN
177.1278°
Arg perigee
298.5920°
Mean anomaly
61.4746°
Rev number
15,740

§ Raw data

STARLINK-302171 57450U 23105W   26145.13962069 -.00038118  00000+0 -13768-2 0  99952 57450  43.0041 177.1278 0001850 298.5920  61.4746 15.27719753157409

JSON: /api/v1/satellites/57450 · /tle

For live sub-satellite position, see the globe view (requires WebGL).

§ Visibility from observer

Set your observer location to see the next 7 days of passes ≥ 10°. The values pass through the URL so the page stays shareable.

No JS? Fill the form by hand. The geolocation button needs JavaScript.